Flag for Madagascar Weather past 2 weeks in Antsirabe, Madagascar

Now
66 °F

Broken clouds.


Feels Like: 66 °F
Forecast: 49 / 66 °F
Wind: 14 mph from Southeast

Location: Antananarivo / Ivato

Current Time: Jul 24, 2014 at 2:49:40 PM

Latest Report: Jul 24, 2014 at 2:00 PM


Visibility: N/A

Pressure: 30.27 "Hg

Humidity: 73%

Dew point: 57 °F

Location of AntsirabeLocation

Historic Weather in Antsirabe — Graph

°F

Antsirabe temperature yesterday

Maximum temperature yesterday: 68 °F (at 3:00 PM)
Minimum temperature yesterday: 52 °F (at 3:30 AM)
Average temperature yesterday: 58 °F

Past Weeks' High & Low Weather Summary

 TemperatureHumidityPressure
High79 °F (Jul 19, 12:00 PM)100% (Jul 9, 9:30 PM)30.42 "Hg (Jul 9, 9:30 PM)
Low46 °F (Jul 13, 4:00 AM)53% (Jul 9, 4:00 PM)30.15 "Hg (Jul 9, 4:00 PM)
Average59 °F91%30.31 "Hg
* Reported Jul 9 4:00 PM — Jul 24 2:00 PM, Antsirabe, Weather by CustomWeather, © 2014

Note: Actual official high and low records may vary slightly from our data, if they occured in-between our weather recording intervals... More about our weather records

Advertising

Antsirabe weather history for previous 24 hours

 ConditionsComfort  
Time TempWeatherWind HumidityBarometerVisibility
2:00 PM
Jul 24
66 °FBroken clouds.14 mph73%30.27 "HgN/A
1:30 PM68 °FBroken clouds.14 mph73%30.27 "HgN/A
1:00 PM66 °FPartly sunny.15 mph78%30.27 "HgN/A
12:30 PM66 °FPartly sunny.15 mph78%30.30 "HgN/A
12:00 PM64 °FPartly sunny.13 mph83%30.30 "HgN/A
11:30 AM64 °FPartly sunny.16 mph78%30.33 "HgN/A
11:00 AM66 °FScattered clouds.15 mph78%30.33 "HgN/A
10:00 AM64 °FScattered clouds.14 mph83%30.33 "HgN/A
9:30 AM64 °FScattered clouds.14 mph83%30.33 "HgN/A
8:30 AM59 °FScattered clouds.12 mph88%30.33 "HgN/A
8:00 AM59 °FPartly sunny.7 mph100%30.33 "HgN/A
7:30 AM57 °FPartly sunny.5 mph100%30.33 "HgN/A
7:00 AM54 °FPartly sunny.2 mph100%30.30 "HgN/A
6:30 AM54 °FPartly sunny.6 mph100%30.30 "HgN/A
6:00 AM54 °FPassing clouds.5 mph100%30.30 "HgN/A
5:30 AM54 °FPassing clouds.6 mph100%30.30 "HgN/A
5:00 AM54 °FPassing clouds.5 mph100%30.30 "HgN/A
4:30 AM54 °FPassing clouds.7 mph100%30.27 "HgN/A
4:00 AM54 °FPassing clouds.5 mph100%30.30 "HgN/A
3:30 AM54 °FPassing clouds.7 mph100%30.30 "HgN/A
3:00 AM54 °FPassing clouds.6 mph100%30.30 "HgN/A
2:30 AM54 °FPassing clouds.2 mph100%30.30 "HgN/A
2:00 AM54 °FPassing clouds.3 mph100%30.30 "HgN/A
1:30 AM54 °FPassing clouds.5 mph100%30.30 "HgN/A
1:00 AM54 °FPassing clouds.6 mph100%30.33 "HgN/A
12:30 AM54 °FPassing clouds.7 mph100%30.33 "HgN/A
12:00 AM54 °FPassing clouds.9 mph100%30.33 "HgN/A
11:30 PM
Jul 23
54 °FPassing clouds.9 mph100%30.33 "HgN/A
11:00 PM55 °FPassing clouds.9 mph100%30.33 "HgN/A
10:00 PM54 °FPassing clouds.5 mph100%30.33 "HgN/A
9:30 PM54 °FPassing clouds.5 mph100%30.33 "HgN/A
9:00 PM55 °FPassing clouds.7 mph100%30.33 "HgN/A
8:30 PM55 °FPassing clouds.7 mph100%30.33 "HgN/A
8:00 PM55 °FPassing clouds.9 mph100%30.33 "HgN/A
7:30 PM55 °FPassing clouds.9 mph100%30.30 "HgN/A
7:00 PM57 °FPassing clouds.9 mph100%30.30 "HgN/A
6:30 PM59 °FPassing clouds.9 mph88%30.30 "HgN/A
6:00 PM61 °FPassing clouds.9 mph88%30.27 "HgN/A
5:30 PM63 °FPassing clouds.9 mph77%30.27 "HgN/A
5:00 PM64 °FPassing clouds.8 mph73%30.27 "HgN/A
4:30 PM64 °FScattered clouds.8 mph73%30.27 "HgN/A
4:00 PM64 °FScattered clouds.9 mph73%30.27 "HgN/A
3:00 PM68 °FScattered clouds.12 mph64%30.24 "HgN/A
2:30 PM66 °FPartly sunny.10 mph68%30.24 "HgN/A
2:00 PM64 °FPartly sunny.10 mph78%30.27 "HgN/A
Weather by CustomWeather, © 2014

See weather overviewHow to use our weather pages